When you browse on this site, cookies collect data to enhance your experience and personalize the content and advertising you see.
Visit our Privacy Policy to learn more. By continuing to use the site, you agree to this use of cookies and data.
  • In Austria
  • List of Countries
  • For 7 days
  • Water Temperature
  • Weather Map
  • News
  • Weather Widgets
  • user-avatar
    Login

    Hourly Weather Tetepango

    Today, 22 November, Friday

    Time Temperature Precipitation Wind Pressure Humidity
    00:00 +14°C° 0 mm 0 mps 589 mmHg 76%
    01:00 +15°C° 0 mm 1 mps 588 mmHg 75%
    02:00 +14°C° 0 mm 1 mps 588 mmHg 75%
    03:00 +14°C° 0 mm 1 mps 588 mmHg 76%
    04:00 +12°C° 0 mm 0 mps 588 mmHg 77%
    05:00 +12°C° 0 mm 0 mps 588 mmHg 78%
    06:00 +14°C° 0 mm 0 mps 589 mmHg 70%
    07:00 +15°C° 0 mm 0 mps 590 mmHg 63%
    08:00 +19°C° 0 mm 1 mps 591 mmHg 55%
    09:00 +21°C° 0 mm 1 mps 591 mmHg 48%
    10:00 +23°C° 0 mm 2 mps 592 mmHg 41%
    11:00 +24°C° 0 mm 2 mps 592 mmHg 34%
    12:00 +25°C° 0 mm 2 mps 591 mmHg 31%
    13:00 +25°C° 0 mm 2 mps 591 mmHg 29%
    14:00 +26°C° 0 mm 3 mps 590 mmHg 26%
    15:00 +24°C° 0 mm 3 mps 590 mmHg 30%
    16:00 +22°C° 0 mm 3 mps 590 mmHg 35%
    17:00 +20°C° 0 mm 3 mps 589 mmHg 40%
    18:00 +19°C° 0 mm 2 mps 589 mmHg 47%
    19:00 +18°C° 0 mm 2 mps 590 mmHg 55%
    20:00 +18°C° 0 mm 1 mps 590 mmHg 63%
    21:00 +16°C° 0 mm 1 mps 589 mmHg 64%
    22:00 +15°C° 0 mm 1 mps 589 mmHg 66%
    23:00 +14°C° 0 mm 0 mps 589 mmHg 68%

    Tomorrow, 23 November, Saturday

    Time Temperature Precipitation Wind Pressure Humidity
    00:00 +13°C° 0 mm 0 mps 588 mmHg 69%
    01:00 +13°C° 0 mm 0 mps 588 mmHg 70%
    02:00 +12°C° 0 mm 0 mps 587 mmHg 70%
    03:00 +12°C° 0 mm 0 mps 587 mmHg 72%
    04:00 +11°C° 0 mm 0 mps 587 mmHg 73%
    05:00 +11°C° 0 mm 0 mps 587 mmHg 75%
    06:00 +12°C° 0 mm 0 mps 588 mmHg 67%
    07:00 +14°C° 0 mm 0 mps 590 mmHg 60%
    08:00 +16°C° 0 mm 0 mps 591 mmHg 52%
    09:00 +18°C° 0 mm 0 mps 591 mmHg 44%
    10:00 +22°C° 0 mm 1 mps 592 mmHg 36%
    11:00 +24°C° 0 mm 1 mps 592 mmHg 28%
    12:00 +24°C° 0 mm 2 mps 592 mmHg 27%
    13:00 +24°C° 0 mm 2 mps 592 mmHg 27%
    14:00 +25°C° 0 mm 3 mps 591 mmHg 27%
    15:00 +22°C° 0 mm 3 mps 591 mmHg 35%
    16:00 +20°C° 0 mm 3 mps 590 mmHg 44%
    17:00 +19°C° 0 mm 3 mps 590 mmHg 52%
    18:00 +18°C° 0 mm 2 mps 590 mmHg 62%
    19:00 +17°C° 0 mm 2 mps 590 mmHg 72%
    20:00 +16°C° 0 mm 1 mps 590 mmHg 82%
    21:00 +15°C° 0 mm 1 mps 590 mmHg 83%
    22:00 +15°C° 0 mm 1 mps 590 mmHg 85%
    23:00 +15°C° 0 mm 1 mps 590 mmHg 86%

    Day after tomorrow, 24 November, Sunday

    Time Temperature Precipitation Wind Pressure Humidity
    00:00 +14°C° 0 mm 1 mps 589 mmHg 86%
    01:00 +14°C° 0 mm 1 mps 589 mmHg 85%
    02:00 +13°C° 0 mm 1 mps 589 mmHg 84%
    03:00 +13°C° 0 mm 1 mps 588 mmHg 85%
    04:00 +12°C° 0 mm 1 mps 588 mmHg 86%
    05:00 +11°C° 0 mm 0 mps 588 mmHg 87%
    06:00 +12°C° 0 mm 0 mps 589 mmHg 81%
    07:00 +13°C° 0 mm 0 mps 590 mmHg 75%
    08:00 +13°C° 0 mm 0 mps 590 mmHg 70%
    09:00 +15°C° 0 mm 0 mps 591 mmHg 60%
    10:00 +17°C° 0 mm 0 mps 591 mmHg 51%
    11:00 +19°C° 0 mm 0 mps 591 mmHg 42%
    12:00 +22°C° 0 mm 1 mps 591 mmHg 37%
    13:00 +23°C° 0 mm 1 mps 591 mmHg 33%
    14:00 +24°C° 0 mm 2 mps 590 mmHg 28%
    15:00 +23°C° 0 mm 2 mps 590 mmHg 34%
    16:00 +20°C° 0 mm 2 mps 589 mmHg 39%
    17:00 +19°C° 0 mm 2 mps 589 mmHg 44%
    18:00 +18°C° 0 mm 2 mps 589 mmHg 55%
    19:00 +18°C° 0 mm 1 mps 589 mmHg 66%
    20:00 +16°C° 0 mm 1 mps 589 mmHg 77%
    21:00 +15°C° 0 mm 1 mps 588 mmHg 78%
    22:00 +15°C° 0 mm 1 mps 588 mmHg 78%
    23:00 +15°C° 0 mm 1 mps 588 mmHg 79%

    25 November, Monday

    Time Temperature Precipitation Wind Pressure Humidity
    00:00 +14°C° 0 mm 1 mps 587 mmHg 77%
    01:00 +14°C° 0 mm 1 mps 587 mmHg 75%
    02:00 +14°C° 0 mm 1 mps 587 mmHg 73%
    03:00 +13°C° 0 mm 1 mps 586 mmHg 74%
    04:00 +13°C° 0 mm 1 mps 586 mmHg 74%
    05:00 +13°C° 0 mm 1 mps 586 mmHg 75%
    06:00 +15°C° 0 mm 1 mps 587 mmHg 69%
    07:00 +16°C° 0 mm 1 mps 588 mmHg 62%
    08:00 +19°C° 0 mm 1 mps 589 mmHg 56%
    09:00 +20°C° 0 mm 1 mps 589 mmHg 51%
    10:00 +22°C° 0 mm 1 mps 590 mmHg 47%
    11:00 +24°C° 0 mm 2 mps 590 mmHg 43%
    12:00 +24°C° 0 mm 2 mps 590 mmHg 39%
    13:00 +25°C° 0 mm 2 mps 589 mmHg 36%
    14:00 +25°C° 0 mm 3 mps 589 mmHg 32%
    15:00 +24°C° 0 mm 3 mps 589 mmHg 36%
    16:00 +22°C° 0 mm 3 mps 588 mmHg 40%
    17:00 +20°C° 0 mm 3 mps 588 mmHg 44%
    18:00 +19°C° 0 mm 2 mps 588 mmHg 50%
    19:00 +19°C° 0 mm 2 mps 588 mmHg 55%
    20:00 +19°C° 0 mm 1 mps 588 mmHg 60%
    21:00 +18°C° 0 mm 1 mps 588 mmHg 64%
    22:00 +15°C° 0 mm 0 mps 587 mmHg 67%
    23:00 +15°C° 0 mm 0 mps 587 mmHg 70%

    26 November, Tuesday

    Time Temperature Precipitation Wind Pressure Humidity
    00:00 +14°C° 0 mm 0 mps 587 mmHg 71%
    01:00 +14°C° 0 mm 0 mps 586 mmHg 71%
    02:00 +14°C° 0 mm 0 mps 586 mmHg 72%
    03:00 +13°C° 0 mm 0 mps 586 mmHg 73%
    04:00 +14°C° 0 mm 1 mps 586 mmHg 74%
    05:00 +14°C° 0 mm 1 mps 586 mmHg 76%
    06:00 +15°C° 0 mm 1 mps 587 mmHg 69%
    07:00 +18°C° 0 mm 1 mps 588 mmHg 63%
    08:00 +19°C° 0 mm 1 mps 589 mmHg 57%
    09:00 +21°C° 0 mm 1 mps 589 mmHg 51%
    10:00 +23°C° 0 mm 1 mps 590 mmHg 46%
    11:00 +24°C° 0 mm 1 mps 590 mmHg 40%
    12:00 +25°C° 0 mm 1 mps 590 mmHg 37%
    13:00 +26°C° 0 mm 1 mps 589 mmHg 35%
    14:00 +26°C° 0 mm 1 mps 589 mmHg 32%
    15:00 +25°C° 0 mm 1 mps 589 mmHg 36%
    16:00 +24°C° 0 mm 2 mps 589 mmHg 41%
    17:00 +22°C° 0 mm 3 mps 589 mmHg 46%
    18:00 +21°C° 0 mm 2 mps 589 mmHg 52%
    19:00 +20°C° 0 mm 2 mps 589 mmHg 59%
    20:00 +20°C° 0 mm 1 mps 589 mmHg 66%
    21:00 +19°C° 0 mm 1 mps 589 mmHg 69%
    22:00 +18°C° 0 mm 1 mps 589 mmHg 71%
    23:00 +15°C° 0 mm 0 mps 588 mmHg 74%

    27 November, Wednesday

    Time Temperature Precipitation Wind Pressure Humidity
    00:00 +15°C° 0 mm 0 mps 588 mmHg 76%
    01:00 +14°C° 0 mm 0 mps 588 mmHg 77%
    02:00 +14°C° 0 mm 0 mps 587 mmHg 78%
    03:00 +13°C° 0 mm 0 mps 587 mmHg 79%
    04:00 +13°C° 0 mm 0 mps 587 mmHg 80%
    05:00 +12°C° 0 mm 0 mps 587 mmHg 81%
    06:00 +14°C° 0 mm 0 mps 588 mmHg 74%
    07:00 +16°C° 0 mm 0 mps 590 mmHg 66%
    08:00 +17°C° 0 mm 0 mps 591 mmHg 59%
    09:00 +19°C° 0 mm 0 mps 591 mmHg 52%
    10:00 +21°C° 0 mm 0 mps 592 mmHg 44%
    11:00 +22°C° 0 mm 0 mps 592 mmHg 37%
    12:00 +25°C° 0 mm 1 mps 592 mmHg 33%
    13:00 +26°C° 0 mm 1 mps 592 mmHg 29%
    14:00 +26°C° 0 mm 1 mps 592 mmHg 25%
    15:00 +25°C° 0 mm 2 mps 591 mmHg 33%
    16:00 +23°C° 0 mm 2 mps 591 mmHg 42%
    17:00 +20°C° 0 mm 2 mps 590 mmHg 51%
    18:00 +19°C° 0 mm 2 mps 590 mmHg 63%
    19:00 +18°C° 0 mm 2 mps 590 mmHg 74%
    20:00 +18°C° 0 mm 1 mps 590 mmHg 86%
    21:00 +16°C° 0 mm 1 mps 590 mmHg 88%
    22:00 +16°C° 0 mm 1 mps 590 mmHg 91%
    23:00 +15°C° 0 mm 1 mps 590 mmHg 93%
    Show more